RADIO ROSTO (RS-15) (23439 NORAD) Tracking and Keplerian Element Data

This shows tracking and keplerian element data for the satellite.

Feedback or suggestion? Click here.




ElementValue
Catalog23439
NameRADIO ROSTO (RS-15)
Epoch Orbit1434
Epoch Day226.8988105
Epoch Year2019
RAAN23.611
Inclination64.819
Eccentricity0.0146034
Argument of Perigee102.1313
Mean Anonmoly259.6013
Mean Motion11.27568725
Decay Rate-5.5E-07
L11 23439U 94085A 19226.89881050 -.00000055 00000-0 -35426-3 0 9991
L22 23439 64.8190 23.6110 0146034 102.1313 259.6013 11.27568725 14345

Live tracking and technical data element details for RADIO ROSTO (RS-15) (NORAD 23439). RADIO ROSTO (RS-15) can be tracked NOW for your location showing map with azimuth and elevation plus other details from your city location.

Track the satellite on the map from your city or location and see movement details for azimuth, elevation, latitude, longitude, range, height, and movement on the map or in text.







IsCatalogInMostPopularTable: catalog: 23439, numindb: 182
Update: records affected: 1



GetName: 23439 RADIO ROSTO (RS-15)

Hit Count: updated at: Sat, 17 Aug 2019 10:32:40 GMT